[[{"header":{"parameterUnit":"m.s-1","parameterCategory":1,"la1":30.2991,"la2":30.254,"lo1":-89.0895,"lo2":-89.0444,"dy":0.0017,"dx":0.0017,"nx":28,"ny":28,"refTime":"2024-04-16T09:00:00:Z","depth":0,"parameterNumber":2,"parameterNumberName":"U-component_of_WINDS"},"data":[0,0,0,0,0,0,0,0,0,0,0,0,0,0,0,0,0,0,0,0,0,0,0,0,0,0,0,0,0,0,0,0,0,0,0,0,0,0,0,0,0,0,0,0,0,0,0,0,0,0,0,0,0,0,0,0,0,0,-4.3595,-4.3596,0,-4.3713,-4.3714,-4.3716,-4.3709,-4.3707,-4.3705,-4.3704,-4.3824,-4.3828,-4.3833,0,0,0,0,0,0,0,0,0,0,0,0,0,-4.3364,-4.3368,-4.3595,-4.3596,-4.3598,-4.3713,-4.3714,-4.3716,-4.3709,-4.3707,-4.3705,-4.3703,-4.3822,-4.3828,-4.3833,0,0,0,0,0,0,0,0,0,0,0,0,0,-4.3471,-4.3369,-4.3594,-4.3608,-4.3611,-4.3712,-4.3714,-4.3716,-4.371,-4.3707,-4.3704,-4.3702,-4.382,-4.3827,-4.3834,-4.393,0,0,-4.3856,-4.3859,0,0,0,0,0,0,0,0,-4.3465,-4.348,-4.3605,-4.3607,-4.361,-4.3694,-4.3677,-4.3788,-4.371,-4.3672,-4.3704,-4.3701,-4.3782,-4.3792,-4.382,-4.3935,-4.394,-4.3857,-4.3861,-4.3864,-4.3866,0,0,0,0,0,0,0,-4.3458,-4.3475,-4.3641,-4.3607,-4.361,-4.3609,-4.3621,-4.3698,-4.374,-4.3675,-4.3675,-4.3689,-4.3783,-4.3813,-4.3823,-4.3942,-4.3857,-4.3863,-4.3867,-4.387,-4.4143,-4.4145,0,0,0,0,0,0,-4.3447,-4.3468,-4.3638,-4.3645,-4.353,-4.3615,-4.3629,-4.3669,-4.3739,-4.3747,-4.3691,-4.3688,-4.3802,-4.3815,-4.3827,-4.3944,-4.3864,-4.3871,-4.3875,-4.414,-4.4143,-4.4146,0,0,0,0,0,0,-4.3442,-4.3462,-4.3633,-4.3557,-4.3578,-4.3622,-4.3667,-4.3673,-4.3703,-4.3751,-4.3759,-4.3714,-4.3801,-4.3817,-4.3905,-4.3948,-4.3874,-4.3881,-4.4136,-4.4141,-4.4145,-4.4177,0,0,0,0,0,0,-4.3436,-4.3461,-4.3497,-4.3558,-4.3582,-4.3708,-4.367,-4.3677,-4.3715,-4.3713,-4.3775,-4.3782,-4.38,-4.3894,-4.3912,-4.3956,-4.3886,-4.4133,-4.4138,-4.4143,-4.4172,-4.4182,-4.419,0,0,0,0,0,-4.3427,-4.3501,-4.3499,-4.3519,-4.3629,-4.3711,-4.3725,-4.3744,-4.3719,-4.3756,-4.3787,-4.378,-4.3941,-4.3903,-4.3923,-4.397,-4.413,-4.4137,-4.4143,-4.4168,-4.418,-4.419,0,0,0,0,0,0,-4.3443,-4.3509,-4.3507,-4.3603,-4.3651,-4.3709,-4.3756,-4.3756,-4.3812,-4.3807,-4.3829,-4.3843,-4.393,-4.3959,-4.3916,-4.4067,-4.4032,-4.4043,-4.4044,-4.4056,-4.4065,-4.4055,-4.3892,0,0,0,0,0,-4.3458,-4.3519,-4.3573,-4.3652,-4.3677,-4.3713,-4.3749,-4.376,-4.3811,-4.3831,-4.3869,-4.3918,-4.398,-4.402,-4.4079,-4.4177,-4.419,-4.422,-4.4229,-4.4236,-4.4244,-4.4299,-4.4312,-4.4168,-4.4168,-4.4168,0,0,-4.3489,-4.3532,-4.3569,-4.3657,-4.3695,-4.3758,-4.373,-4.3797,-4.3844,-4.3841,-4.3926,-4.3956,-4.4013,-4.4106,-4.4149,-4.4133,-4.4288,-4.4244,-4.425,-4.4254,-4.4307,-4.4321,-4.4333,-4.4173,-4.4172,-4.4171,0,0,-4.3577,-4.3616,-4.3686,-4.3726,-4.3786,-4.381,-4.3827,-4.3886,-4.3905,-4.3991,-4.3991,-4.4047,-4.4152,-4.4193,-4.4227,-4.4333,-4.4329,-4.4352,-4.4398,-4.4451,-4.4463,-4.4473,-4.451,-4.4523,-4.4361,-4.4361,-4.4361,0,-4.3607,-4.3702,-4.3722,-4.379,-4.3829,-4.3831,-4.3902,-4.394,-4.4016,-4.4042,-4.4023,-4.4157,-4.4195,-4.4298,-4.4324,-4.4352,-4.4372,-4.4344,-4.4459,-4.447,-4.448,-4.4515,-4.4529,-4.4364,-4.4363,-4.4363,-4.4363,0,-4.3736,-4.3802,-4.3851,-4.3925,-4.3969,-4.4039,-4.407,-4.4113,-4.4121,-4.4147,-4.4234,-4.4281,-4.435,-4.4376,-4.4384,-4.4481,-4.4469,-4.4455,-4.442,-4.4495,-4.4529,-4.4543,-4.4367,-4.4366,-4.4365,-4.4365,0,0,-4.3834,-4.392,-4.3938,-4.3972,-4.4039,-4.409,-4.4161,-4.4229,-4.4265,-4.4318,-4.4377,-4.4467,-4.4455,-4.4494,-4.4507,-4.4554,-4.4635,-4.4534,-4.4536,-4.455,-4.4744,-4.4753,-4.4769,-4.4633,-4.4636,-4.4638,-4.4739,0,-4.3928,-4.4052,-4.4074,-4.4182,-4.4244,-4.4248,-4.4309,-4.4357,-4.4383,-4.4439,-4.4469,-4.4533,-4.4512,-4.4536,-4.4582,-4.4615,-4.4674,-4.4608,-4.4688,-4.469,-4.4672,-4.4786,-4.4796,-4.4889,-4.4752,-4.4755,-4.4756,0,-4.4053,-4.411,-4.4225,-4.4285,-4.4311,-4.4366,-4.4431,-4.4484,-4.4539,-4.4556,-4.4601,-4.4609,-4.4682,-4.4646,-4.4747,-4.4702,-4.4737,-4.4758,-4.4762,-4.4769,-4.4727,-4.4795,-4.4919,-4.4932,-4.4778,-4.4776,-4.4774,0,-4.4113,-4.4218,-4.4301,-4.433,-4.4402,-4.444,-4.4472,-4.4525,-4.4565,-4.4622,-4.4648,-4.4713,-4.4748,-4.4798,-4.4824,-4.4795,-4.4923,-4.4889,-4.4938,-4.4938,-4.4963,-4.4961,-4.5093,-4.4988,-4.4988,-4.4988,-4.4987,0,-4.4214,-4.4284,-4.4328,-4.4379,-4.4458,-4.4483,-4.456,-4.4591,-4.4638,-4.4695,-4.4703,-4.4756,-4.4787,-4.4845,-4.4866,-4.4947,-4.4963,-4.4978,-4.4982,-4.4977,-4.4974,-4.4998,-4.4992,-4.4991,-4.4991,-4.499,-4.4989,0,-4.4293,-4.4325,-4.4415,-4.4477,-4.4494,-4.4549,-4.4602,-4.4652,-4.4679,-4.4751,-4.477,-4.4813,-4.4882,-4.4913,-4.4998,-4.5012,-4.5104,-4.5104,-4.5085,-4.5086,-4.5133,-4.5128,-4.5284,-4.5305,-4.5187,-4.5188,-4.5189,0,-4.4354,-4.4408,-4.4476,-4.4515,-4.4548,-4.461,-4.4652,-4.4679,-4.4722,-4.479,-4.4831,-4.4901,-4.4957,-4.5067,-4.5106,-4.5171,-4.5173,-4.5223,-4.5182,-4.5175,-4.5172,-4.5168,-4.5174,-4.5229,-4.5231,-4.5232,-4.5232,0,-4.446,-4.4474,-4.4533,-4.4599,-4.4648,-4.4701,-4.4753,-4.4784,-4.482,-4.4868,-4.4938,-4.4983,-4.507,-4.5139,-4.5207,-4.524,-4.5242,-4.5245,-4.526,-4.5254,-4.524,-4.5247,-4.5103,-4.5241,-4.524,-4.524,-4.5239,-4.5239,-4.4531,-4.458,-4.4635,-4.4701,-4.4744,-4.4792,-4.4842,-4.4877,-4.4936,-4.5009,-4.5023,-4.5098,-4.5153,-4.5245,-4.5281,-4.534,-4.5328,-4.535,-4.5355,-4.536,-4.5362,-4.5232,-4.5353,-4.5353,-4.5353,-4.5353,-4.5352,0,-4.4637,-4.4673,-4.4734,-4.4807,-4.4859,-4.4858,-4.4916,-4.4959,-4.5026,-4.5077,-4.5133,-4.5215,-4.5282,-4.5328,-4.5396,-4.5435,-4.5438,-4.5452,-4.5448,-4.5456,-4.5369,-4.5349,-4.5448,-4.5448,-4.5448,-4.5448,-4.5448,-4.5448,-4.4698,-4.4779,-4.48,-4.4904,-4.494,-4.5014,-4.5047,-4.5092,-4.5133,-4.5224,-4.5281,-4.531,-4.5359,-4.5432,-4.5493,-4.5505,-4.5529,-4.5544,-4.5555,-4.5472,-4.5462,-4.5452,-4.5434,-4.5549,-4.5549,-4.5637,-4.5637,-4.5638]},{"header":{"parameterUnit":"m.s-1","parameterCategory":1,"la1":30.2991,"la2":30.254,"lo1":-89.0895,"lo2":-89.0444,"dy":0.0017,"dx":0.0017,"nx":28,"ny":28,"refTime":"2024-04-16T09:00:00:Z","depth":0,"parameterNumber":3,"parameterNumberName":"V-component_of_WINDS"},"data":[0,0,0,0,0,0,0,0,0,0,0,0,0,0,0,0,0,0,0,0,0,0,0,0,0,0,0,0,0,0,0,0,0,0,0,0,0,0,0,0,0,0,0,0,0,0,0,0,0,0,0,0,0,0,0,0,0,0,3.9075,3.9076,0,3.912,3.912,3.9121,3.9147,3.9147,3.9147,3.9147,3.9191,3.9192,3.9193,0,0,0,0,0,0,0,0,0,0,0,0,0,3.9014,3.9015,3.9075,3.9076,3.9077,3.912,3.912,3.9121,3.9147,3.9147,3.9147,3.9148,3.9191,3.9192,3.9193,0,0,0,0,0,0,0,0,0,0,0,0,0,3.9047,3.9015,3.9075,3.9095,3.9097,3.912,3.912,3.9121,3.9147,3.9147,3.9147,3.9148,3.919,3.9192,3.9193,3.9199,0,0,3.9198,3.9199,0,0,0,0,0,0,0,0,3.9045,3.905,3.9091,3.9094,3.9096,3.9128,3.9115,3.9147,3.9147,3.9128,3.9147,3.9148,3.917,3.9173,3.9181,3.9201,3.9203,3.9198,3.9199,3.92,3.92,0,0,0,0,0,0,0,3.9043,3.9048,3.9093,3.9092,3.9095,3.9102,3.9107,3.9121,3.9147,3.913,3.9132,3.9137,3.9171,3.9179,3.9182,3.9204,3.9198,3.92,3.92,3.9201,3.9235,3.9235,0,0,0,0,0,0,3.9038,3.9046,3.9092,3.9094,3.9071,3.9102,3.9108,3.9118,3.9147,3.9152,3.9137,3.9138,3.9177,3.918,3.9184,3.9195,3.92,3.9201,3.9202,3.9235,3.9235,3.9234,0,0,0,0,0,0,3.9036,3.9042,3.909,3.9071,3.9077,3.9103,3.9114,3.9118,3.9127,3.9152,3.9157,3.914,3.9177,3.9182,3.9196,3.9196,3.9202,3.9203,3.9235,3.9235,3.9235,3.9215,0,0,0,0,0,0,3.9034,3.9041,3.9043,3.9071,3.9078,3.9101,3.9114,3.9119,3.913,3.9132,3.9157,3.9161,3.9177,3.9194,3.9198,3.9199,3.9205,3.9235,3.9235,3.9235,3.9216,3.9215,3.9213,0,0,0,0,0,3.9032,3.9035,3.9043,3.9048,3.9082,3.9101,3.9105,3.9124,3.9129,3.9132,3.9149,3.9161,3.9196,3.9195,3.92,3.9201,3.9235,3.9235,3.9235,3.9217,3.9215,3.9213,0,0,0,0,0,0,3.9005,3.9039,3.9048,3.906,3.9078,3.9105,3.9109,3.9121,3.9137,3.9139,3.9161,3.9166,3.9179,3.9192,3.919,3.921,3.9217,3.9218,3.9201,3.92,3.9199,3.9195,3.9206,0,0,0,0,0,3.9001,3.9014,3.9043,3.905,3.9059,3.9083,3.9092,3.9105,3.9124,3.9131,3.9149,3.9167,3.9183,3.9192,3.9207,3.9218,3.9225,3.9222,3.922,3.9219,3.922,3.9229,3.9228,3.9234,3.9234,3.9234,0,0,3.8992,3.9012,3.9018,3.9045,3.9061,3.9074,3.9089,3.9102,3.9112,3.9133,3.9149,3.9163,3.9184,3.9197,3.9204,3.9208,3.922,3.9219,3.9218,3.9219,3.9229,3.9228,3.9228,3.9234,3.9234,3.9234,0,0,3.8982,3.8998,3.9007,3.9023,3.9047,3.9063,3.9065,3.9092,3.9103,3.9119,3.9136,3.9149,3.9174,3.9189,3.92,3.92,3.9212,3.9205,3.9197,3.9206,3.9206,3.9205,3.9207,3.9207,3.9205,3.9205,3.9205,0,3.8967,3.8989,3.901,3.9023,3.9036,3.9057,3.9067,3.9081,3.9108,3.9116,3.9121,3.9155,3.9171,3.9189,3.919,3.9197,3.9202,3.9201,3.9204,3.9204,3.9204,3.9206,3.9206,3.9204,3.9204,3.9204,3.9204,0,3.897,3.8985,3.899,3.9017,3.903,3.9041,3.9065,3.9076,3.9089,3.9105,3.9122,3.9143,3.9164,3.9169,3.9181,3.919,3.9192,3.92,3.9207,3.9202,3.9204,3.9205,3.9203,3.9203,3.9203,3.9203,0,0,3.8943,3.8985,3.8986,3.9,3.9029,3.9041,3.9054,3.9076,3.9086,3.9104,3.9117,3.9139,3.9148,3.916,3.9175,3.9182,3.9183,3.9189,3.919,3.9189,3.9196,3.9191,3.9191,3.9191,3.9191,3.9191,3.9195,0,3.8938,3.8964,3.8985,3.9003,3.9018,3.904,3.9052,3.9071,3.9087,3.9103,3.912,3.9137,3.9146,3.9154,3.9162,3.9181,3.9185,3.9181,3.9203,3.9204,3.9198,3.9191,3.9185,3.9187,3.9196,3.9196,3.9196,0,3.8935,3.8955,3.8975,3.9006,3.9013,3.9023,3.9046,3.906,3.9083,3.9095,3.9111,3.9126,3.9142,3.9148,3.9171,3.9168,3.9179,3.919,3.9191,3.9194,3.9199,3.9195,3.9188,3.9189,3.9197,3.9197,3.9197,0,3.8915,3.8947,3.8964,3.8975,3.901,3.9017,3.9032,3.9056,3.9068,3.9089,3.9098,3.9119,3.9131,3.9147,3.9169,3.9171,3.919,3.9197,3.9201,3.92,3.9203,3.9203,3.9199,3.9209,3.9209,3.9209,3.9209,0,3.8908,3.892,3.8955,3.8965,3.898,3.9005,3.9018,3.9035,3.9056,3.9071,3.9091,3.9104,3.9131,3.9148,3.9164,3.9182,3.9187,3.9197,3.9201,3.9196,3.9194,3.9203,3.9204,3.9209,3.9209,3.9209,3.9209,0,3.8888,3.8912,3.8932,3.8965,3.8973,3.8983,3.9011,3.9022,3.904,3.9059,3.9064,3.9093,3.9114,3.9137,3.9165,3.9176,3.9193,3.9199,3.9186,3.9188,3.9191,3.9191,3.9192,3.9195,3.9203,3.9202,3.9202,0,3.8881,3.8891,3.8926,3.8938,3.8953,3.8971,3.8985,3.9011,3.9024,3.9053,3.9061,3.9084,3.9104,3.9136,3.9159,3.9182,3.9189,3.9188,3.9192,3.9187,3.919,3.919,3.9192,3.9187,3.9186,3.9186,3.9186,0,3.8869,3.8881,3.89,3.8925,3.8942,3.8962,3.8983,3.8991,3.9021,3.9036,3.9058,3.9073,3.9104,3.9127,3.9152,3.9168,3.9182,3.9185,3.9187,3.9181,3.9174,3.9179,3.9183,3.9184,3.9185,3.9185,3.9185,3.9185,3.8856,3.8867,3.8894,3.8916,3.8935,3.8955,3.8968,3.8989,3.9008,3.9035,3.9049,3.9072,3.9098,3.9134,3.915,3.9168,3.9173,3.9175,3.9176,3.9177,3.9176,3.9171,3.9173,3.9173,3.9173,3.9173,3.9173,0,3.8845,3.8865,3.8885,3.8915,3.8932,3.8946,3.897,3.8984,3.9004,3.9027,3.9047,3.9074,3.9097,3.9123,3.9148,3.9158,3.9166,3.9164,3.9164,3.9167,3.917,3.9166,3.9158,3.9158,3.9158,3.9158,3.9158,3.9158,3.8842,3.8861,3.8877,3.8907,3.8927,3.895,3.8963,3.8982,3.9001,3.9031,3.9051,3.9068,3.9093,3.912,3.9143,3.915,3.9158,3.9155,3.9164,3.9166,3.9167,3.9168,3.9165,3.9156,3.9156,3.9161,3.9161,3.9161]}]]